owner,sensor,date,latitude,longitude,vertical_datum,sea_water_practical_salinity,qcFlag 
NERRS,ioos:station:NOAA.NERRS:gndbhwq:1,2012-05-11T12:45:00Z,30.4178,-88.4054,0.0,15.8,1111122 
NERRS,ioos:station:NOAA.NERRS:gndbhwq:1,2012-05-11T13:45:00Z,30.4178,-88.4054,0.0,16.0,1111122 
NERRS,ioos:station:NOAA.NERRS:gndbhwq:1,2012-05-11T14:45:00Z,30.4178,-88.4054,0.0,16.2,1111122 
NERRS,ioos:station:NOAA.NERRS:gndbhwq:1,2012-05-11T15:45:00Z,30.4178,-88.4054,0.0,16.2,1111122 
NERRS,ioos:station:NOAA.NERRS:gndbhwq:1,2012-05-11T16:45:00Z,30.4178,-88.4054,0.0,16.3,1111122 
NERRS,ioos:station:NOAA.NERRS:gndbhwq:1,2012-05-11T17:45:00Z,30.4178,-88.4054,0.0,16.4,1111122 
NERRS,ioos:station:NOAA.NERRS:gndbhwq:1,2012-05-11T18:45:00Z,30.4178,-88.4054,0.0,16.4,1111122 
NERRS,ioos:station:NOAA.NERRS:gndbhwq:1,2012-05-11T19:45:00Z,30.4178,-88.4054,0.0,16.3,1111122 
NERRS,ioos:station:NOAA.NERRS:gndbhwq:1,2012-05-11T20:45:00Z,30.4178,-88.4054,0.0,16.3,1111122 
NERRS,ioos:station:NOAA.NERRS:gndbhwq:1,2012-05-11T21:45:00Z,30.4178,-88.4054,0.0,16.4,1111122 
NERRS,ioos:station:NOAA.NERRS:gndbhwq:1,2012-05-11T22:45:00Z,30.4178,-88.4054,0.0,16.5,1111122 
NERRS,ioos:station:NOAA.NERRS:gndbhwq:1,2012-05-11T23:45:00Z,30.4178,-88.4054,0.0,16.6,1111122 
NERRS,ioos:station:NOAA.NERRS:gndbhwq:1,2012-05-12T00:45:00Z,30.4178,-88.4054,0.0,16.3,1111122 
NERRS,ioos:station:NOAA.NERRS:gndbhwq:1,2012-05-12T01:45:00Z,30.4178,-88.4054,0.0,16.2,1111122 
NERRS,ioos:station:NOAA.NERRS:gndbhwq:1,2012-05-12T02:45:00Z,30.4178,-88.4054,0.0,16.3,1111122 
NERRS,ioos:station:NOAA.NERRS:gndbhwq:1,2012-05-12T03:45:00Z,30.4178,-88.4054,0.0,15.9,1111122 
NERRS,ioos:station:NOAA.NERRS:gndbhwq:1,2012-05-12T04:45:00Z,30.4178,-88.4054,0.0,16.4,1111122 
NERRS,ioos:station:NOAA.NERRS:gndbhwq:1,2012-05-12T05:45:00Z,30.4178,-88.4054,0.0,15.7,1111122 
NERRS,ioos:station:NOAA.NERRS:gndbhwq:1,2012-05-12T06:45:00Z,30.4178,-88.4054,0.0,15.7,1111122 
NERRS,ioos:station:NOAA.NERRS:gndbhwq:1,2012-05-12T07:45:00Z,30.4178,-88.4054,0.0,15.8,1111122 
NERRS,ioos:station:NOAA.NERRS:gndbhwq:1,2012-05-12T08:45:00Z,30.4178,-88.4054,0.0,16.1,1111122 
NERRS,ioos:station:NOAA.NERRS:gndbhwq:1,2012-05-12T09:45:00Z,30.4178,-88.4054,0.0,15.1,1111122 
NERRS,ioos:station:NOAA.NERRS:gndbhwq:1,2012-05-12T10:45:00Z,30.4178,-88.4054,0.0,16.0,1111122 
NERRS,ioos:station:NOAA.NERRS:gndbhwq:1,2012-05-12T11:45:00Z,30.4178,-88.4054,0.0,15.5,1111122 
NERRS,ioos:station:NOAA.NERRS:gndbhwq:1,2012-05-12T12:45:00Z,30.4178,-88.4054,0.0,15.7,1111122 
NERRS,ioos:station:NOAA.NERRS:gndbhwq:1,2012-05-12T13:45:00Z,30.4178,-88.4054,0.0,15.4,1111122 
NERRS,ioos:station:NOAA.NERRS:gndbhwq:1,2012-05-12T14:45:00Z,30.4178,-88.4054,0.0,15.5,1111122 
NERRS,ioos:station:NOAA.NERRS:gndbhwq:1,2012-05-12T15:45:00Z,30.4178,-88.4054,0.0,15.3,1111122 
NERRS,ioos:station:NOAA.NERRS:gndbhwq:1,2012-05-12T16:45:00Z,30.4178,-88.4054,0.0,15.8,1111122 
NERRS,ioos:station:NOAA.NERRS:gndbhwq:1,2012-05-12T17:45:00Z,30.4178,-88.4054,0.0,15.2,1111122 
NERRS,ioos:station:NOAA.NERRS:gndbhwq:1,2012-05-12T18:45:00Z,30.4178,-88.4054,0.0,15.5,1111122 
NERRS,ioos:station:NOAA.NERRS:gndbhwq:1,2012-05-12T19:45:00Z,30.4178,-88.4054,0.0,15.4,1111122 
NERRS,ioos:station:NOAA.NERRS:gndbhwq:1,2012-05-12T20:45:00Z,30.4178,-88.4054,0.0,15.6,1111122 
NERRS,ioos:station:NOAA.NERRS:gndbhwq:1,2012-05-12T21:45:00Z,30.4178,-88.4054,0.0,14.9,1111122 
NERRS,ioos:station:NOAA.NERRS:gndbhwq:1,2012-05-12T22:45:00Z,30.4178,-88.4054,0.0,15.0,1111122 
NERRS,ioos:station:NOAA.NERRS:gndbhwq:1,2012-05-12T23:45:00Z,30.4178,-88.4054,0.0,14.5,1111122 
NERRS,ioos:station:NOAA.NERRS:gndbhwq:1,2012-05-13T00:45:00Z,30.4178,-88.4054,0.0,14.4,1111122 
NERRS,ioos:station:NOAA.NERRS:gndbhwq:1,2012-05-13T01:45:00Z,30.4178,-88.4054,0.0,14.9,1111122 
NERRS,ioos:station:NOAA.NERRS:gndbhwq:1,2012-05-13T02:45:00Z,30.4178,-88.4054,0.0,14.7,1111122 
NERRS,ioos:station:NOAA.NERRS:gndbhwq:1,2012-05-13T03:45:00Z,30.4178,-88.4054,0.0,14.6,1111122 
NERRS,ioos:station:NOAA.NERRS:gndbhwq:1,2012-05-13T04:45:00Z,30.4178,-88.4054,0.0,14.7,1111122 
NERRS,ioos:station:NOAA.NERRS:gndbhwq:1,2012-05-13T05:45:00Z,30.4178,-88.4054,0.0,15.1,1111122 
NERRS,ioos:station:NOAA.NERRS:gndbhwq:1,2012-05-13T06:45:00Z,30.4178,-88.4054,0.0,15.3,1111122 
NERRS,ioos:station:NOAA.NERRS:gndbhwq:1,2012-05-13T07:45:00Z,30.4178,-88.4054,0.0,14.7,1111122 
NERRS,ioos:station:NOAA.NERRS:gndbhwq:1,2012-05-13T08:45:00Z,30.4178,-88.4054,0.0,15.6,1111122 
NERRS,ioos:station:NOAA.NERRS:gndbhwq:1,2012-05-13T09:45:00Z,30.4178,-88.4054,0.0,15.4,1111122 
NERRS,ioos:station:NOAA.NERRS:gndbhwq:1,2012-05-13T10:45:00Z,30.4178,-88.4054,0.0,15.6,1111122 
NERRS,ioos:station:NOAA.NERRS:gndbhwq:1,2012-05-13T11:45:00Z,30.4178,-88.4054,0.0,15.6,1111122 
NERRS,ioos:station:NOAA.NERRS:gndbhwq:1,2012-05-13T12:45:00Z,30.4178,-88.4054,0.0,15.7,1111122 
NERRS,ioos:station:NOAA.NERRS:gndbhwq:1,2012-05-13T13:45:00Z,30.4178,-88.4054,0.0,15.7,1111122 
NERRS,ioos:station:NOAA.NERRS:gndbhwq:1,2012-05-13T14:45:00Z,30.4178,-88.4054,0.0,15.9,1111122 
NERRS,ioos:station:NOAA.NERRS:gndbhwq:1,2012-05-13T15:45:00Z,30.4178,-88.4054,0.0,15.9,1111122 
NERRS,ioos:station:NOAA.NERRS:gndbhwq:1,2012-05-13T16:45:00Z,30.4178,-88.4054,0.0,15.8,1111122 
NERRS,ioos:station:NOAA.NERRS:gndbhwq:1,2012-05-13T17:45:00Z,30.4178,-88.4054,0.0,16.0,1111122 
NERRS,ioos:station:NOAA.NERRS:gndbhwq:1,2012-05-13T18:45:00Z,30.4178,-88.4054,0.0,16.0,1111122 
NERRS,ioos:station:NOAA.NERRS:gndbhwq:1,2012-05-13T19:45:00Z,30.4178,-88.4054,0.0,16.0,1111122 
NERRS,ioos:station:NOAA.NERRS:gndbhwq:1,2012-05-13T20:45:00Z,30.4178,-88.4054,0.0,15.9,1111122 
NERRS,ioos:station:NOAA.NERRS:gndbhwq:1,2012-05-13T21:45:00Z,30.4178,-88.4054,0.0,15.9,1111122 
NERRS,ioos:station:NOAA.NERRS:gndbhwq:1,2012-05-13T22:45:00Z,30.4178,-88.4054,0.0,15.9,1111122 
NERRS,ioos:station:NOAA.NERRS:gndbhwq:1,2012-05-13T23:45:00Z,30.4178,-88.4054,0.0,16.0,1111122 
NERRS,ioos:station:NOAA.NERRS:gndbhwq:1,2012-05-14T00:45:00Z,30.4178,-88.4054,0.0,16.0,1111122 
NERRS,ioos:station:NOAA.NERRS:gndbhwq:1,2012-05-14T01:45:00Z,30.4178,-88.4054,0.0,16.1,1111122 
NERRS,ioos:station:NOAA.NERRS:gndbhwq:1,2012-05-14T02:45:00Z,30.4178,-88.4054,0.0,16.3,1111122 
NERRS,ioos:station:NOAA.NERRS:gndbhwq:1,2012-05-14T03:45:00Z,30.4178,-88.4054,0.0,16.3,1111122 
NERRS,ioos:station:NOAA.NERRS:gndbhwq:1,2012-05-14T04:45:00Z,30.4178,-88.4054,0.0,16.4,1111122 
NERRS,ioos:station:NOAA.NERRS:gndbhwq:1,2012-05-14T05:45:00Z,30.4178,-88.4054,0.0,16.7,1111122 
NERRS,ioos:station:NOAA.NERRS:gndbhwq:1,2012-05-14T06:45:00Z,30.4178,-88.4054,0.0,16.9,1111122 
NERRS,ioos:station:NOAA.NERRS:gndbhwq:1,2012-05-14T07:45:00Z,30.4178,-88.4054,0.0,17.4,1111122 
NERRS,ioos:station:NOAA.NERRS:gndbhwq:1,2012-05-14T08:45:00Z,30.4178,-88.4054,0.0,17.5,1111122 
NERRS,ioos:station:NOAA.NERRS:gndbhwq:1,2012-05-14T09:45:00Z,30.4178,-88.4054,0.0,17.9,1111122 
NERRS,ioos:station:NOAA.NERRS:gndbhwq:1,2012-05-14T10:45:00Z,30.4178,-88.4054,0.0,18.2,1111122 
NERRS,ioos:station:NOAA.NERRS:gndbhwq:1,2012-05-14T11:45:00Z,30.4178,-88.4054,0.0,18.4,1111122 
NERRS,ioos:station:NOAA.NERRS:gndbhwq:1,2012-05-14T12:45:00Z,30.4178,-88.4054,0.0,18.8,1111122 
NERRS,ioos:station:NOAA.NERRS:gndbhwq:1,2012-05-14T13:45:00Z,30.4178,-88.4054,0.0,19.1,1111122 
NERRS,ioos:station:NOAA.NERRS:gndbhwq:1,2012-05-14T14:45:00Z,30.4178,-88.4054,0.0,19.3,1111122 
NERRS,ioos:station:NOAA.NERRS:gndbhwq:1,2012-05-14T15:45:00Z,30.4178,-88.4054,0.0,19.5,1111122 
NERRS,ioos:station:NOAA.NERRS:gndbhwq:1,2012-05-14T16:45:00Z,30.4178,-88.4054,0.0,19.5,1111122 
NERRS,ioos:station:NOAA.NERRS:gndbhwq:1,2012-05-14T17:45:00Z,30.4178,-88.4054,0.0,19.7,1111122 
NERRS,ioos:station:NOAA.NERRS:gndbhwq:1,2012-05-14T18:45:00Z,30.4178,-88.4054,0.0,19.8,1111122 
NERRS,ioos:station:NOAA.NERRS:gndbhwq:1,2012-05-14T19:45:00Z,30.4178,-88.4054,0.0,19.8,1111122 
NERRS,ioos:station:NOAA.NERRS:gndbhwq:1,2012-05-14T20:45:00Z,30.4178,-88.4054,0.0,19.8,1111122 
NERRS,ioos:station:NOAA.NERRS:gndbhwq:1,2012-05-14T21:45:00Z,30.4178,-88.4054,0.0,19.8,1111122 
NERRS,ioos:station:NOAA.NERRS:gndbhwq:1,2012-05-14T22:45:00Z,30.4178,-88.4054,0.0,19.6,1111122 
NERRS,ioos:station:NOAA.NERRS:gndbhwq:1,2012-05-14T23:45:00Z,30.4178,-88.4054,0.0,19.4,1111122 
NERRS,ioos:station:NOAA.NERRS:gndbhwq:1,2012-05-15T00:45:00Z,30.4178,-88.4054,0.0,19.3,1111122 
NERRS,ioos:station:NOAA.NERRS:gndbhwq:1,2012-05-15T01:45:00Z,30.4178,-88.4054,0.0,19.3,1111122 
NERRS,ioos:station:NOAA.NERRS:gndbhwq:1,2012-05-15T02:45:00Z,30.4178,-88.4054,0.0,19.2,1111122 
NERRS,ioos:station:NOAA.NERRS:gndbhwq:1,2012-05-15T03:45:00Z,30.4178,-88.4054,0.0,19.2,1111122 
NERRS,ioos:station:NOAA.NERRS:gndbhwq:1,2012-05-15T04:45:00Z,30.4178,-88.4054,0.0,19.2,1111122 
NERRS,ioos:station:NOAA.NERRS:gndbhwq:1,2012-05-15T05:45:00Z,30.4178,-88.4054,0.0,19.4,1111122 
NERRS,ioos:station:NOAA.NERRS:gndbhwq:1,2012-05-15T06:45:00Z,30.4178,-88.4054,0.0,19.4,1111122 
NERRS,ioos:station:NOAA.NERRS:gndbhwq:1,2012-05-15T07:45:00Z,30.4178,-88.4054,0.0,19.6,1111122 
NERRS,ioos:station:NOAA.NERRS:gndbhwq:1,2012-05-15T08:45:00Z,30.4178,-88.4054,0.0,19.5,1111122 
NERRS,ioos:station:NOAA.NERRS:gndbhwq:1,2012-05-15T09:45:00Z,30.4178,-88.4054,0.0,19.7,1111122 
NERRS,ioos:station:NOAA.NERRS:gndbhwq:1,2012-05-15T10:45:00Z,30.4178,-88.4054,0.0,19.6,1111122 
NERRS,ioos:station:NOAA.NERRS:gndbhwq:1,2012-05-15T11:45:00Z,30.4178,-88.4054,0.0,19.7,1111122 
NERRS,ioos:station:NOAA.NERRS:gndbhwq:1,2012-05-15T12:45:00Z,30.4178,-88.4054,0.0,19.7,1111122 
NERRS,ioos:station:NOAA.NERRS:gndbhwq:1,2012-05-15T13:45:00Z,30.4178,-88.4054,0.0,19.7,1111122 
NERRS,ioos:station:NOAA.NERRS:gndbhwq:1,2012-05-15T14:45:00Z,30.4178,-88.4054,0.0,19.7,1111122 
NERRS,ioos:station:NOAA.NERRS:gndbhwq:1,2012-05-15T15:45:00Z,30.4178,-88.4054,0.0,19.7,1111122 
NERRS,ioos:station:NOAA.NERRS:gndbhwq:1,2012-05-15T16:45:00Z,30.4178,-88.4054,0.0,19.8,1111122 
NERRS,ioos:station:NOAA.NERRS:gndbhwq:1,2012-05-15T17:45:00Z,30.4178,-88.4054,0.0,19.8,1111122 
NERRS,ioos:station:NOAA.NERRS:gndbhwq:1,2012-05-15T18:45:00Z,30.4178,-88.4054,0.0,19.8,1111122 
NERRS,ioos:station:NOAA.NERRS:gndbhwq:1,2012-05-15T19:45:00Z,30.4178,-88.4054,0.0,19.9,1111122 
NERRS,ioos:station:NOAA.NERRS:gndbhwq:1,2012-05-15T20:45:00Z,30.4178,-88.4054,0.0,20.1,1111122 
NERRS,ioos:station:NOAA.NERRS:gndbhwq:1,2012-05-15T21:45:00Z,30.4178,-88.4054,0.0,20.4,1111122 
NERRS,ioos:station:NOAA.NERRS:gndbhwq:1,2012-05-15T22:45:00Z,30.4178,-88.4054,0.0,19.9,1111122 
NERRS,ioos:station:NOAA.NERRS:gndbhwq:1,2012-05-15T23:45:00Z,30.4178,-88.4054,0.0,19.8,1111122 
NERRS,ioos:station:NOAA.NERRS:gndbhwq:1,2012-05-16T00:45:00Z,30.4178,-88.4054,0.0,19.7,1111122 
NERRS,ioos:station:NOAA.NERRS:gndbhwq:1,2012-05-16T01:45:00Z,30.4178,-88.4054,0.0,19.7,1111122 
NERRS,ioos:station:NOAA.NERRS:gndbhwq:1,2012-05-16T02:45:00Z,30.4178,-88.4054,0.0,19.6,1111122 
NERRS,ioos:station:NOAA.NERRS:gndbhwq:1,2012-05-16T03:45:00Z,30.4178,-88.4054,0.0,19.6,1111122 
NERRS,ioos:station:NOAA.NERRS:gndbhwq:1,2012-05-16T04:45:00Z,30.4178,-88.4054,0.0,19.6,1111122 
NERRS,ioos:station:NOAA.NERRS:gndbhwq:1,2012-05-16T05:45:00Z,30.4178,-88.4054,0.0,19.7,1111122 
NERRS,ioos:station:NOAA.NERRS:gndbhwq:1,2012-05-16T06:45:00Z,30.4178,-88.4054,0.0,20.0,1111122 
NERRS,ioos:station:NOAA.NERRS:gndbhwq:1,2012-05-16T07:45:00Z,30.4178,-88.4054,0.0,20.0,1111122 
NERRS,ioos:station:NOAA.NERRS:gndbhwq:1,2012-05-16T08:45:00Z,30.4178,-88.4054,0.0,20.6,1111122 
NERRS,ioos:station:NOAA.NERRS:gndbhwq:1,2012-05-16T09:45:00Z,30.4178,-88.4054,0.0,21.0,1111122 
NERRS,ioos:station:NOAA.NERRS:gndbhwq:1,2012-05-16T10:45:00Z,30.4178,-88.4054,0.0,21.2,1111122 
NERRS,ioos:station:NOAA.NERRS:gndbhwq:1,2012-05-16T11:45:00Z,30.4178,-88.4054,0.0,21.3,1111122 
NERRS,ioos:station:NOAA.NERRS:gndbhwq:1,2012-05-16T12:45:00Z,30.4178,-88.4054,0.0,21.4,1111122 
NERRS,ioos:station:NOAA.NERRS:gndbhwq:1,2012-05-16T13:45:00Z,30.4178,-88.4054,0.0,21.5,1111122 
NERRS,ioos:station:NOAA.NERRS:gndbhwq:1,2012-05-16T14:45:00Z,30.4178,-88.4054,0.0,21.6,1111122 
NERRS,ioos:station:NOAA.NERRS:gndbhwq:1,2012-05-16T15:45:00Z,30.4178,-88.4054,0.0,21.7,1111122 
NERRS,ioos:station:NOAA.NERRS:gndbhwq:1,2012-05-16T16:45:00Z,30.4178,-88.4054,0.0,21.7,1111122 
NERRS,ioos:station:NOAA.NERRS:gndbhwq:1,2012-05-16T17:45:00Z,30.4178,-88.4054,0.0,21.8,1111122 
NERRS,ioos:station:NOAA.NERRS:gndbhwq:1,2012-05-16T18:45:00Z,30.4178,-88.4054,0.0,21.8,1111122 
NERRS,ioos:station:NOAA.NERRS:gndbhwq:1,2012-05-16T19:45:00Z,30.4178,-88.4054,0.0,21.8,1111122 
NERRS,ioos:station:NOAA.NERRS:gndbhwq:1,2012-05-16T20:45:00Z,30.4178,-88.4054,0.0,21.8,1111122 
NERRS,ioos:station:NOAA.NERRS:gndbhwq:1,2012-05-16T21:45:00Z,30.4178,-88.4054,0.0,21.8,1111122 
NERRS,ioos:station:NOAA.NERRS:gndbhwq:1,2012-05-16T22:45:00Z,30.4178,-88.4054,0.0,22.5,1111122 
NERRS,ioos:station:NOAA.NERRS:gndbhwq:1,2012-05-16T23:45:00Z,30.4178,-88.4054,0.0,22.3,1111122 
NERRS,ioos:station:NOAA.NERRS:gndbhwq:1,2012-05-17T00:45:00Z,30.4178,-88.4054,0.0,22.3,1111122 
NERRS,ioos:station:NOAA.NERRS:gndbhwq:1,2012-05-17T01:45:00Z,30.4178,-88.4054,0.0,22.3,1111122 
NERRS,ioos:station:NOAA.NERRS:gndbhwq:1,2012-05-17T02:45:00Z,30.4178,-88.4054,0.0,21.9,1111122 
NERRS,ioos:station:NOAA.NERRS:gndbhwq:1,2012-05-17T03:45:00Z,30.4178,-88.4054,0.0,22.0,1111122 
NERRS,ioos:station:NOAA.NERRS:gndbhwq:1,2012-05-17T04:45:00Z,30.4178,-88.4054,0.0,22.2,1111122 
NERRS,ioos:station:NOAA.NERRS:gndbhwq:1,2012-05-17T05:45:00Z,30.4178,-88.4054,0.0,22.1,1111122 
NERRS,ioos:station:NOAA.NERRS:gndbhwq:1,2012-05-17T06:45:00Z,30.4178,-88.4054,0.0,22.2,1111122 
NERRS,ioos:station:NOAA.NERRS:gndbhwq:1,2012-05-17T07:45:00Z,30.4178,-88.4054,0.0,22.0,1111122 
NERRS,ioos:station:NOAA.NERRS:gndbhwq:1,2012-05-17T08:45:00Z,30.4178,-88.4054,0.0,22.3,1111122 
NERRS,ioos:station:NOAA.NERRS:gndbhwq:1,2012-05-17T09:45:00Z,30.4178,-88.4054,0.0,22.2,1111122 
NERRS,ioos:station:NOAA.NERRS:gndbhwq:1,2012-05-17T10:45:00Z,30.4178,-88.4054,0.0,22.3,1111122 
NERRS,ioos:station:NOAA.NERRS:gndbhwq:1,2012-05-17T11:45:00Z,30.4178,-88.4054,0.0,22.4,1111122 
NERRS,ioos:station:NOAA.NERRS:gndbhwq:1,2012-05-17T12:45:00Z,30.4178,-88.4054,0.0,22.4,1111122 
NERRS,ioos:station:NOAA.NERRS:gndbhwq:1,2012-05-17T13:45:00Z,30.4178,-88.4054,0.0,22.4,1111122 
NERRS,ioos:station:NOAA.NERRS:gndbhwq:1,2012-05-17T14:45:00Z,30.4178,-88.4054,0.0,22.4,1111122 
NERRS,ioos:station:NOAA.NERRS:gndbhwq:1,2012-05-17T15:45:00Z,30.4178,-88.4054,0.0,22.4,1111122 
NERRS,ioos:station:NOAA.NERRS:gndbhwq:1,2012-05-17T16:45:00Z,30.4178,-88.4054,0.0,22.5,1111122 
NERRS,ioos:station:NOAA.NERRS:gndbhwq:1,2012-05-17T23:45:00Z,30.4178,-88.4054,0.0,22.3,1111122 
NERRS,ioos:station:NOAA.NERRS:gndbhwq:1,2012-05-18T00:45:00Z,30.4178,-88.4054,0.0,22.1,1111122 
NERRS,ioos:station:NOAA.NERRS:gndbhwq:1,2012-05-18T01:45:00Z,30.4178,-88.4054,0.0,21.9,1111122 
NERRS,ioos:station:NOAA.NERRS:gndbhwq:1,2012-05-18T02:45:00Z,30.4178,-88.4054,0.0,21.9,1111122 
NERRS,ioos:station:NOAA.NERRS:gndbhwq:1,2012-05-18T03:45:00Z,30.4178,-88.4054,0.0,21.8,1111122 
NERRS,ioos:station:NOAA.NERRS:gndbhwq:1,2012-05-18T04:45:00Z,30.4178,-88.4054,0.0,21.7,1111122 
NERRS,ioos:station:NOAA.NERRS:gndbhwq:1,2012-05-18T05:45:00Z,30.4178,-88.4054,0.0,21.9,1111122 
NERRS,ioos:station:NOAA.NERRS:gndbhwq:1,2012-05-18T06:45:00Z,30.4178,-88.4054,0.0,21.8,1111122 
NERRS,ioos:station:NOAA.NERRS:gndbhwq:1,2012-05-18T07:45:00Z,30.4178,-88.4054,0.0,21.9,1111122 
NERRS,ioos:station:NOAA.NERRS:gndbhwq:1,2012-05-18T08:45:00Z,30.4178,-88.4054,0.0,22.0,1111122 
NERRS,ioos:station:NOAA.NERRS:gndbhwq:1,2012-05-18T09:45:00Z,30.4178,-88.4054,0.0,22.1,1111122 
NERRS,ioos:station:NOAA.NERRS:gndbhwq:1,2012-05-18T10:45:00Z,30.4178,-88.4054,0.0,22.1,1111122 
NERRS,ioos:station:NOAA.NERRS:gndbhwq:1,2012-05-18T11:45:00Z,30.4178,-88.4054,0.0,22.1,1111122 
NERRS,ioos:station:NOAA.NERRS:gndbhwq:1,2012-05-18T12:45:00Z,30.4178,-88.4054,0.0,22.1,1111122 
NERRS,ioos:station:NOAA.NERRS:gndbhwq:1,2012-05-18T13:45:00Z,30.4178,-88.4054,0.0,22.1,1111122 
NERRS,ioos:station:NOAA.NERRS:gndbhwq:1,2012-05-18T14:45:00Z,30.4178,-88.4054,0.0,22.1,1111122 
NERRS,ioos:station:NOAA.NERRS:gndbhwq:1,2012-05-18T15:45:00Z,30.4178,-88.4054,0.0,22.2,1111122 
NERRS,ioos:station:NOAA.NERRS:gndbhwq:1,2012-05-18T16:45:00Z,30.4178,-88.4054,0.0,22.2,1111122 
NERRS,ioos:station:NOAA.NERRS:gndbhwq:1,2012-05-18T17:45:00Z,30.4178,-88.4054,0.0,22.2,1111122 
NERRS,ioos:station:NOAA.NERRS:gndbhwq:1,2012-05-18T18:45:00Z,30.4178,-88.4054,0.0,22.0,1111122 
NERRS,ioos:station:NOAA.NERRS:gndbhwq:1,2012-05-18T19:45:00Z,30.4178,-88.4054,0.0,21.9,1111122 
NERRS,ioos:station:NOAA.NERRS:gndbhwq:1,2012-05-18T20:45:00Z,30.4178,-88.4054,0.0,21.8,1111122 
NERRS,ioos:station:NOAA.NERRS:gndbhwq:1,2012-05-18T21:45:00Z,30.4178,-88.4054,0.0,21.6,1111122 
NERRS,ioos:station:NOAA.NERRS:gndbhwq:1,2012-05-18T22:45:00Z,30.4178,-88.4054,0.0,21.3,1111122 
NERRS,ioos:station:NOAA.NERRS:gndbhwq:1,2012-05-18T23:45:00Z,30.4178,-88.4054,0.0,21.2,1111122 
NERRS,ioos:station:NOAA.NERRS:gndbhwq:1,2012-05-19T00:45:00Z,30.4178,-88.4054,0.0,21.3,1111122 
NERRS,ioos:station:NOAA.NERRS:gndbhwq:1,2012-05-19T01:45:00Z,30.4178,-88.4054,0.0,21.4,1111122 
NERRS,ioos:station:NOAA.NERRS:gndbhwq:1,2012-05-19T02:45:00Z,30.4178,-88.4054,0.0,21.3,1111122 
NERRS,ioos:station:NOAA.NERRS:gndbhwq:1,2012-05-19T03:45:00Z,30.4178,-88.4054,0.0,21.5,1111122 
NERRS,ioos:station:NOAA.NERRS:gndbhwq:1,2012-05-19T04:45:00Z,30.4178,-88.4054,0.0,21.3,1111122 
NERRS,ioos:station:NOAA.NERRS:gndbhwq:1,2012-05-19T05:45:00Z,30.4178,-88.4054,0.0,21.3,1111122 
NERRS,ioos:station:NOAA.NERRS:gndbhwq:1,2012-05-19T06:45:00Z,30.4178,-88.4054,0.0,21.3,1111122 
NERRS,ioos:station:NOAA.NERRS:gndbhwq:1,2012-05-19T07:45:00Z,30.4178,-88.4054,0.0,21.4,1111122 
NERRS,ioos:station:NOAA.NERRS:gndbhwq:1,2012-05-19T08:45:00Z,30.4178,-88.4054,0.0,21.4,1111122 
NERRS,ioos:station:NOAA.NERRS:gndbhwq:1,2012-05-19T09:45:00Z,30.4178,-88.4054,0.0,21.4,1111122 
NERRS,ioos:station:NOAA.NERRS:gndbhwq:1,2012-05-19T10:45:00Z,30.4178,-88.4054,0.0,21.4,1111122 
NERRS,ioos:station:NOAA.NERRS:gndbhwq:1,2012-05-19T11:45:00Z,30.4178,-88.4054,0.0,21.1,1111122 
NERRS,ioos:station:NOAA.NERRS:gndbhwq:1,2012-05-19T12:45:00Z,30.4178,-88.4054,0.0,21.6,1111122 
NERRS,ioos:station:NOAA.NERRS:gndbhwq:1,2012-05-19T13:45:00Z,30.4178,-88.4054,0.0,21.7,1111122 
NERRS,ioos:station:NOAA.NERRS:gndbhwq:1,2012-05-19T14:45:00Z,30.4178,-88.4054,0.0,21.6,1111122 
NERRS,ioos:station:NOAA.NERRS:gndbhwq:1,2012-05-19T15:45:00Z,30.4178,-88.4054,0.0,21.5,1111122 
NERRS,ioos:station:NOAA.NERRS:gndbhwq:1,2012-05-19T16:45:00Z,30.4178,-88.4054,0.0,21.4,1111122 
NERRS,ioos:station:NOAA.NERRS:gndbhwq:1,2012-05-19T17:45:00Z,30.4178,-88.4054,0.0,21.3,1111122 
NERRS,ioos:station:NOAA.NERRS:gndbhwq:1,2012-05-19T18:45:00Z,30.4178,-88.4054,0.0,21.2,1111122 
NERRS,ioos:station:NOAA.NERRS:gndbhwq:1,2012-05-19T19:45:00Z,30.4178,-88.4054,0.0,21.0,1111122 
NERRS,ioos:station:NOAA.NERRS:gndbhwq:1,2012-05-19T20:45:00Z,30.4178,-88.4054,0.0,21.0,1111122 
NERRS,ioos:station:NOAA.NERRS:gndbhwq:1,2012-05-19T21:45:00Z,30.4178,-88.4054,0.0,21.0,1111122 
NERRS,ioos:station:NOAA.NERRS:gndbhwq:1,2012-05-19T22:45:00Z,30.4178,-88.4054,0.0,20.8,1111122 
NERRS,ioos:station:NOAA.NERRS:gndbhwq:1,2012-05-19T23:45:00Z,30.4178,-88.4054,0.0,20.6,1111122 
NERRS,ioos:station:NOAA.NERRS:gndbhwq:1,2012-05-20T00:45:00Z,30.4178,-88.4054,0.0,20.6,1111122 
NERRS,ioos:station:NOAA.NERRS:gndbhwq:1,2012-05-20T01:45:00Z,30.4178,-88.4054,0.0,20.7,1111122 
NERRS,ioos:station:NOAA.NERRS:gndbhwq:1,2012-05-20T02:45:00Z,30.4178,-88.4054,0.0,20.7,1111122 
NERRS,ioos:station:NOAA.NERRS:gndbhwq:1,2012-05-20T03:45:00Z,30.4178,-88.4054,0.0,20.6,1111122 
NERRS,ioos:station:NOAA.NERRS:gndbhwq:1,2012-05-20T04:45:00Z,30.4178,-88.4054,0.0,20.8,1111122 
NERRS,ioos:station:NOAA.NERRS:gndbhwq:1,2012-05-20T05:45:00Z,30.4178,-88.4054,0.0,20.8,1111122 
NERRS,ioos:station:NOAA.NERRS:gndbhwq:1,2012-05-20T06:45:00Z,30.4178,-88.4054,0.0,20.8,1111122 
NERRS,ioos:station:NOAA.NERRS:gndbhwq:1,2012-05-20T07:45:00Z,30.4178,-88.4054,0.0,20.9,1111122 
NERRS,ioos:station:NOAA.NERRS:gndbhwq:1,2012-05-20T08:45:00Z,30.4178,-88.4054,0.0,20.9,1111122 
NERRS,ioos:station:NOAA.NERRS:gndbhwq:1,2012-05-20T09:45:00Z,30.4178,-88.4054,0.0,20.9,1111122 
NERRS,ioos:station:NOAA.NERRS:gndbhwq:1,2012-05-20T10:45:00Z,30.4178,-88.4054,0.0,20.9,1111122 
NERRS,ioos:station:NOAA.NERRS:gndbhwq:1,2012-05-20T11:45:00Z,30.4178,-88.4054,0.0,20.9,1111122 
NERRS,ioos:station:NOAA.NERRS:gndbhwq:1,2012-05-20T12:45:00Z,30.4178,-88.4054,0.0,20.9,1111122 
NERRS,ioos:station:NOAA.NERRS:gndbhwq:1,2012-05-20T13:45:00Z,30.4178,-88.4054,0.0,21.0,1111122 
NERRS,ioos:station:NOAA.NERRS:gndbhwq:1,2012-05-20T14:45:00Z,30.4178,-88.4054,0.0,20.9,1111122 
NERRS,ioos:station:NOAA.NERRS:gndbhwq:1,2012-05-20T15:45:00Z,30.4178,-88.4054,0.0,20.9,1111122 
NERRS,ioos:station:NOAA.NERRS:gndbhwq:1,2012-05-20T16:45:00Z,30.4178,-88.4054,0.0,20.9,1111122 
NERRS,ioos:station:NOAA.NERRS:gndbhwq:1,2012-05-20T17:45:00Z,30.4178,-88.4054,0.0,20.9,1111122 
NERRS,ioos:station:NOAA.NERRS:gndbhwq:1,2012-05-20T18:45:00Z,30.4178,-88.4054,0.0,20.9,1111122 
NERRS,ioos:station:NOAA.NERRS:gndbhwq:1,2012-05-20T19:45:00Z,30.4178,-88.4054,0.0,20.9,1111122 
NERRS,ioos:station:NOAA.NERRS:gndbhwq:1,2012-05-20T20:45:00Z,30.4178,-88.4054,0.0,20.9,1111122 
NERRS,ioos:station:NOAA.NERRS:gndbhwq:1,2012-05-20T21:45:00Z,30.4178,-88.4054,0.0,20.9,1111122 
NERRS,ioos:station:NOAA.NERRS:gndbhwq:1,2012-05-20T22:45:00Z,30.4178,-88.4054,0.0,20.7,1111122 
NERRS,ioos:station:NOAA.NERRS:gndbhwq:1,2012-05-20T23:45:00Z,30.4178,-88.4054,0.0,20.8,1111122 
NERRS,ioos:station:NOAA.NERRS:gndbhwq:1,2012-05-21T00:45:00Z,30.4178,-88.4054,0.0,20.8,1111122 
NERRS,ioos:station:NOAA.NERRS:gndbhwq:1,2012-05-21T01:45:00Z,30.4178,-88.4054,0.0,20.8,1111122 
NERRS,ioos:station:NOAA.NERRS:gndbhwq:1,2012-05-21T02:45:00Z,30.4178,-88.4054,0.0,20.8,1111122 
NERRS,ioos:station:NOAA.NERRS:gndbhwq:1,2012-05-21T03:45:00Z,30.4178,-88.4054,0.0,20.8,1111122 
NERRS,ioos:station:NOAA.NERRS:gndbhwq:1,2012-05-21T04:45:00Z,30.4178,-88.4054,0.0,20.8,1111122 
NERRS,ioos:station:NOAA.NERRS:gndbhwq:1,2012-05-21T05:45:00Z,30.4178,-88.4054,0.0,20.8,1111122 
NERRS,ioos:station:NOAA.NERRS:gndbhwq:1,2012-05-21T06:45:00Z,30.4178,-88.4054,0.0,20.8,1111122 
NERRS,ioos:station:NOAA.NERRS:gndbhwq:1,2012-05-21T07:45:00Z,30.4178,-88.4054,0.0,20.8,1111122 
NERRS,ioos:station:NOAA.NERRS:gndbhwq:1,2012-05-21T08:45:00Z,30.4178,-88.4054,0.0,20.8,1111122 
NERRS,ioos:station:NOAA.NERRS:gndbhwq:1,2012-05-21T09:45:00Z,30.4178,-88.4054,0.0,20.8,1111122 
NERRS,ioos:station:NOAA.NERRS:gndbhwq:1,2012-05-21T10:45:00Z,30.4178,-88.4054,0.0,20.8,1111122 
NERRS,ioos:station:NOAA.NERRS:gndbhwq:1,2012-05-21T11:45:00Z,30.4178,-88.4054,0.0,20.9,1111122 
NERRS,ioos:station:NOAA.NERRS:gndbhwq:1,2012-05-21T12:45:00Z,30.4178,-88.4054,0.0,20.9,1111122 
NERRS,ioos:station:NOAA.NERRS:gndbhwq:1,2012-05-21T13:45:00Z,30.4178,-88.4054,0.0,21.0,1111122 
NERRS,ioos:station:NOAA.NERRS:gndbhwq:1,2012-05-21T14:45:00Z,30.4178,-88.4054,0.0,21.3,1111122 
NERRS,ioos:station:NOAA.NERRS:gndbhwq:1,2012-05-21T15:45:00Z,30.4178,-88.4054,0.0,21.4,1111122 
NERRS,ioos:station:NOAA.NERRS:gndbhwq:1,2012-05-21T16:45:00Z,30.4178,-88.4054,0.0,21.5,1111122 
NERRS,ioos:station:NOAA.NERRS:gndbhwq:1,2012-05-21T17:45:00Z,30.4178,-88.4054,0.0,21.6,1111122 
NERRS,ioos:station:NOAA.NERRS:gndbhwq:1,2012-05-21T18:45:00Z,30.4178,-88.4054,0.0,21.8,1111122 
NERRS,ioos:station:NOAA.NERRS:gndbhwq:1,2012-05-21T19:45:00Z,30.4178,-88.4054,0.0,21.9,1111122 
NERRS,ioos:station:NOAA.NERRS:gndbhwq:1,2012-05-21T20:45:00Z,30.4178,-88.4054,0.0,21.9,1111122 
NERRS,ioos:station:NOAA.NERRS:gndbhwq:1,2012-05-21T21:45:00Z,30.4178,-88.4054,0.0,21.9,1111122 
NERRS,ioos:station:NOAA.NERRS:gndbhwq:1,2012-05-21T22:45:00Z,30.4178,-88.4054,0.0,21.8,1111122 
NERRS,ioos:station:NOAA.NERRS:gndbhwq:1,2012-05-21T23:45:00Z,30.4178,-88.4054,0.0,21.3,1111122 
NERRS,ioos:station:NOAA.NERRS:gndbhwq:1,2012-05-22T00:45:00Z,30.4178,-88.4054,0.0,21.3,1111122 
NERRS,ioos:station:NOAA.NERRS:gndbhwq:1,2012-05-22T01:45:00Z,30.4178,-88.4054,0.0,21.8,1111122 
NERRS,ioos:station:NOAA.NERRS:gndbhwq:1,2012-05-22T02:45:00Z,30.4178,-88.4054,0.0,21.5,1111122 